• en France
  • Liste des pays
  • À 7 jours
  • Température de l'eau
  • Carte satellitaire
  • Carte météo
  • Widgets météo
  • user-avatar
    Se connecter

    Météo par heure à Eger

    Ce jour, 18 Octobre, Jeudi

    Heure Température Précipitation Vent Pression Humidité
    00:00 +15°C° 0 mm 1 m/s 748 mmHg 46%
    01:00 +14°C° 0 mm 1 m/s 747 mmHg 47%
    02:00 +14°C° 0 mm 1 m/s 747 mmHg 48%
    03:00 +14°C° 0 mm 1 m/s 747 mmHg 49%
    04:00 +14°C° 0 mm 1 m/s 747 mmHg 50%
    05:00 +14°C° 0 mm 1 m/s 747 mmHg 50%
    06:00 +14°C° 0 mm 1 m/s 747 mmHg 51%
    07:00 +14°C° 0 mm 1 m/s 747 mmHg 51%
    08:00 +15°C° 0 mm 1 m/s 747 mmHg 47%
    09:00 +18°C° 0 mm 1 m/s 747 mmHg 43%
    10:00 +19°C° 0 mm 1 m/s 747 mmHg 39%
    11:00 +20°C° 0 mm 1 m/s 747 mmHg 37%
    12:00 +21°C° 0 mm 1 m/s 747 mmHg 35%
    13:00 +22°C° 0 mm 1 m/s 747 mmHg 33%
    14:00 +21°C° 0 mm 1 m/s 746 mmHg 36%
    15:00 +21°C° 0 mm 1 m/s 746 mmHg 38%
    16:00 +20°C° 0 mm 1 m/s 746 mmHg 41%
    17:00 +19°C° 0 mm 1 m/s 746 mmHg 42%
    18:00 +19°C° 0 mm 1 m/s 746 mmHg 44%
    19:00 +18°C° 0 mm 1 m/s 746 mmHg 45%
    20:00 +18°C° 0 mm 1 m/s 746 mmHg 46%
    21:00 +18°C° 0 mm 1 m/s 746 mmHg 47%
    22:00 +16°C° 0 mm 1 m/s 747 mmHg 49%
    23:00 +16°C° 0 mm 1 m/s 747 mmHg 50%

    Demain, 19 Octobre, Vendredi

    Heure Température Précipitation Vent Pression Humidité
    00:00 +16°C° 0 mm 1 m/s 747 mmHg 52%
    01:00 +15°C° 0 mm 1 m/s 747 mmHg 54%
    02:00 +15°C° 0 mm 1 m/s 747 mmHg 56%
    03:00 +15°C° 0 mm 1 m/s 747 mmHg 57%
    04:00 +15°C° 0 mm 1 m/s 747 mmHg 59%
    05:00 +15°C° 0.1 mm 1 m/s 747 mmHg 61%
    06:00 +15°C° 0.1 mm 1 m/s 747 mmHg 63%
    07:00 +14°C° 0.1 mm 0 m/s 747 mmHg 64%
    08:00 +16°C° 0 mm 1 m/s 748 mmHg 61%
    09:00 +18°C° 0 mm 1 m/s 748 mmHg 58%
    10:00 +19°C° 0 mm 1 m/s 748 mmHg 54%
    11:00 +20°C° 0 mm 1 m/s 748 mmHg 52%
    12:00 +20°C° 0 mm 2 m/s 748 mmHg 51%
    13:00 +20°C° 0 mm 2 m/s 748 mmHg 49%
    14:00 +19°C° 0.1 mm 2 m/s 748 mmHg 53%
    15:00 +19°C° 0.1 mm 2 m/s 748 mmHg 58%
    16:00 +18°C° 0.1 mm 2 m/s 748 mmHg 62%
    17:00 +17°C° 0.3 mm 2 m/s 748 mmHg 68%
    18:00 +16°C° 0.3 mm 2 m/s 748 mmHg 73%
    19:00 +16°C° 0.3 mm 2 m/s 748 mmHg 78%
    20:00 +15°C° 0.3 mm 2 m/s 749 mmHg 79%
    21:00 +15°C° 0.3 mm 2 m/s 749 mmHg 80%
    22:00 +15°C° 0.3 mm 2 m/s 749 mmHg 81%
    23:00 +15°C° 0 mm 2 m/s 749 mmHg 80%

    Après-demain, 20 Octobre, Samedi

    Heure Température Précipitation Vent Pression Humidité
    00:00 +15°C° 0 mm 2 m/s 749 mmHg 79%
    01:00 +15°C° 0 mm 2 m/s 749 mmHg 78%
    02:00 +14°C° 0 mm 2 m/s 749 mmHg 79%
    03:00 +14°C° 0 mm 2 m/s 749 mmHg 80%
    04:00 +13°C° 0 mm 2 m/s 749 mmHg 81%
    05:00 +13°C° 0 mm 2 m/s 750 mmHg 81%
    06:00 +13°C° 0 mm 2 m/s 750 mmHg 81%
    07:00 +13°C° 0 mm 2 m/s 750 mmHg 81%
    08:00 +14°C° 0 mm 3 m/s 750 mmHg 73%
    09:00 +16°C° 0 mm 3 m/s 751 mmHg 65%
    10:00 +18°C° 0 mm 4 m/s 751 mmHg 57%
    11:00 +19°C° 0 mm 4 m/s 751 mmHg 55%
    12:00 +19°C° 0 mm 4 m/s 751 mmHg 52%
    13:00 +20°C° 0 mm 4 m/s 751 mmHg 50%
    14:00 +19°C° 0 mm 3 m/s 751 mmHg 52%
    15:00 +19°C° 0 mm 3 m/s 751 mmHg 54%
    16:00 +18°C° 0 mm 3 m/s 751 mmHg 57%
    17:00 +17°C° 0 mm 3 m/s 751 mmHg 60%
    18:00 +16°C° 0 mm 3 m/s 751 mmHg 64%
    19:00 +14°C° 0 mm 3 m/s 751 mmHg 67%
    20:00 +13°C° 0 mm 3 m/s 752 mmHg 67%
    21:00 +13°C° 0 mm 3 m/s 752 mmHg 67%
    22:00 +12°C° 0 mm 3 m/s 752 mmHg 66%
    23:00 +12°C° 0 mm 3 m/s 752 mmHg 66%

    21 Octobre, Dimanche

    Heure Température Précipitation Vent Pression Humidité
    00:00 +12°C° 0 mm 3 m/s 752 mmHg 66%
    01:00 +11°C° 0 mm 3 m/s 752 mmHg 66%
    02:00 +11°C° 0 mm 3 m/s 752 mmHg 68%
    03:00 +10°C° 0 mm 3 m/s 752 mmHg 70%
    04:00 +10°C° 0 mm 2 m/s 752 mmHg 72%
    05:00 +10°C° 0 mm 2 m/s 752 mmHg 72%
    06:00 +9°C° 0 mm 2 m/s 752 mmHg 72%
    07:00 +9°C° 0 mm 2 m/s 752 mmHg 72%
    08:00 +10°C° 0 mm 3 m/s 752 mmHg 66%
    09:00 +11°C° 0 mm 3 m/s 752 mmHg 60%
    10:00 +12°C° 0 mm 3 m/s 752 mmHg 53%
    11:00 +13°C° 0 mm 3 m/s 752 mmHg 50%
    12:00 +14°C° 0 mm 3 m/s 752 mmHg 47%
    13:00 +14°C° 0 mm 3 m/s 751 mmHg 44%
    14:00 +14°C° 0 mm 3 m/s 751 mmHg 45%
    15:00 +13°C° 0 mm 3 m/s 751 mmHg 46%
    16:00 +13°C° 0 mm 3 m/s 751 mmHg 46%
    17:00 +12°C° 0 mm 3 m/s 751 mmHg 50%
    18:00 +11°C° 0 mm 3 m/s 751 mmHg 54%
    19:00 +9°C° 0 mm 3 m/s 751 mmHg 58%
    20:00 +9°C° 0 mm 3 m/s 751 mmHg 61%
    21:00 +8°C° 0 mm 3 m/s 751 mmHg 65%
    22:00 +8°C° 0 mm 3 m/s 751 mmHg 68%
    23:00 +7°C° 0 mm 3 m/s 751 mmHg 70%

    22 Octobre, Lundi

    Heure Température Précipitation Vent Pression Humidité
    00:00 +7°C° 0 mm 3 m/s 751 mmHg 72%
    01:00 +7°C° 0 mm 3 m/s 751 mmHg 74%
    02:00 +7°C° 0 mm 3 m/s 751 mmHg 75%
    03:00 +5°C° 0 mm 3 m/s 751 mmHg 76%
    04:00 +5°C° 0 mm 4 m/s 751 mmHg 77%
    05:00 +5°C° 0 mm 3 m/s 751 mmHg 77%
    06:00 +5°C° 0 mm 3 m/s 751 mmHg 77%
    07:00 +5°C° 0 mm 3 m/s 751 mmHg 77%
    08:00 +8°C° 0 mm 3 m/s 751 mmHg 69%
    09:00 +8°C° 0 mm 4 m/s 751 mmHg 60%
    10:00 +11°C° 0 mm 4 m/s 751 mmHg 52%
    11:00 +12°C° 0 mm 3 m/s 751 mmHg 48%
    12:00 +13°C° 0 mm 3 m/s 751 mmHg 44%
    13:00 +14°C° 0 mm 3 m/s 750 mmHg 40%
    14:00 +14°C° 0 mm 2 m/s 750 mmHg 42%
    15:00 +14°C° 0 mm 2 m/s 750 mmHg 43%
    16:00 +13°C° 0 mm 1 m/s 750 mmHg 45%
    17:00 +12°C° 0 mm 1 m/s 750 mmHg 49%
    18:00 +11°C° 0 mm 1 m/s 750 mmHg 53%
    19:00 +10°C° 0 mm 1 m/s 750 mmHg 57%
    20:00 +9°C° 0 mm 1 m/s 750 mmHg 59%
    21:00 +9°C° 0 mm 1 m/s 749 mmHg 61%
    22:00 +8°C° 0 mm 1 m/s 749 mmHg 63%
    23:00 +8°C° 0 mm 1 m/s 749 mmHg 64%

    23 Octobre, Mardi

    Heure Température Précipitation Vent Pression Humidité
    00:00 +8°C° 0 mm 1 m/s 749 mmHg 65%
    01:00 +7°C° 0 mm 1 m/s 748 mmHg 66%
    02:00 +7°C° 0 mm 1 m/s 748 mmHg 67%
    03:00 +7°C° 0 mm 1 m/s 748 mmHg 67%
    04:00 +7°C° 0 mm 1 m/s 747 mmHg 67%
    05:00 +7°C° 0 mm 1 m/s 747 mmHg 66%
    06:00 +8°C° 0 mm 1 m/s 747 mmHg 65%
    07:00 +8°C° 0 mm 1 m/s 747 mmHg 64%
    08:00 +9°C° 0 mm 1 m/s 746 mmHg 61%
    09:00 +10°C° 0 mm 1 m/s 746 mmHg 58%
    10:00 +11°C° 0 mm 1 m/s 746 mmHg 55%
    11:00 +11°C° 0.1 mm 1 m/s 746 mmHg 55%
    12:00 +12°C° 0.1 mm 1 m/s 745 mmHg 56%
    13:00 +12°C° 0.1 mm 1 m/s 745 mmHg 56%
    14:00 +11°C° 0 mm 1 m/s 744 mmHg 59%
    15:00 +11°C° 0 mm 1 m/s 744 mmHg 61%
    16:00 +11°C° 0 mm 1 m/s 744 mmHg 64%
    17:00 +10°C° 0 mm 1 m/s 744 mmHg 67%
    18:00 +10°C° 0 mm 1 m/s 744 mmHg 70%
    19:00 +9°C° 0 mm 1 m/s 744 mmHg 73%
    20:00 +9°C° 0.2 mm 1 m/s 744 mmHg 74%
    21:00 +9°C° 0.2 mm 1 m/s 744 mmHg 76%
    22:00 +8°C° 0.2 mm 1 m/s 743 mmHg 77%
    23:00 +8°C° 0.2 mm 1 m/s 743 mmHg 79%
    Voir plus